This is the latest recevied weather packets stored in our database for station/object KG4YZY-1. If no packets are shown the sender has not sent any weather packets the latest 10 day(s).
| Time | Temp. | Humidity | Pressure | Rain* | Wind** | Luminosity | Snow |
|---|---|---|---|---|---|---|---|
| 1788108003 | 31.67° C | 70% | 1019.2 hPa | 0 mm | - | - | - |
| 1788107703 | 31.67° C | 69% | 1019.4 hPa | 0 mm | - | - | - |
| 1788107404 | 32.22° C | 67% | 1019.4 hPa | 0 mm | - | - | - |
| 1788107104 | 32.22° C | 68% | 1019.5 hPa | 0 mm | - | - | - |
| 1788106804 | 32.22° C | 68% | 1019.7 hPa | 0 mm | - | - | - |
| 1788106503 | 32.22° C | 67% | 1019.7 hPa | 0 mm | - | - | - |
| 1788106203 | 32.22° C | 68% | 1019.7 hPa | 0 mm | - | - | - |
| 1788105903 | 32.22° C | 70% | 1019.8 hPa | 0 mm | - | - | - |
| 1788105604 | 31.67° C | 72% | 1019.8 hPa | 0 mm | - | - | - |
| 1788105304 | 31.11° C | 73% | 1019.9 hPa | 0 mm | - | - | - |
| 1788105003 | 31.11° C | 74% | 1020 hPa | 0 mm | - | - | - |
| 1788104704 | 31.11° C | 73% | 1020 hPa | 0 mm | - | - | - |
| 1788104404 | 31.11° C | 74% | 1020.1 hPa | 0 mm | - | - | - |
| 1788104104 | 30.56° C | 74% | 1020.1 hPa | 0 mm | - | - | - |
| 1788103804 | 30.56° C | 76% | 1020.1 hPa | 0 mm | - | - | - |
| 1788103504 | 30° C | 79% | 1020.2 hPa | 0 mm | - | - | - |
| 1788103204 | 29.44° C | 78% | 1020.2 hPa | 0 mm | - | - | - |
| 1788102904 | 29.44° C | 77% | 1020.2 hPa | 0 mm | - | - | - |
| 1788102604 | 29.44° C | 79% | 1020.1 hPa | 0 mm | - | - | - |
| 1788102303 | 29.44° C | 80% | 1020.1 hPa | 0 mm | - | - | - |
| 1788102004 | 28.89° C | 80% | 1020.1 hPa | 0 mm | - | - | - |
| 1788101704 | 28.89° C | 81% | 1020.1 hPa | 0 mm | - | - | - |
| 1788101404 | 28.33° C | 82% | 1020.1 hPa | 0 mm | - | - | - |
| 1788101103 | 28.33° C | 83% | 1020 hPa | 0 mm | - | - | - |
| 1788100803 | 28.33° C | 84% | 1020 hPa | 0 mm | - | - | - |
* Rain latest hour (hover to see other rain measurements)
** Current wind speed in m/s (hover to see current wind gust speed)